RH
96 94 91 89 89 86 86 86 88 88 88 86 86 88 90 90 91 92 90 87 89 92 91 90 90 87 78 66 48 48 40 38 68 76 62 52 45 46 46 37 37 41 33 23 26 29 27
95 90 90 91 87 88 88 88 88 89 88 87 88 90 91 91 90 88 85 77 83 89 92 98 92 85 72 40 48 53 39 41 80 68 59 54 52 38 42 40 41 27 30 30 28 28 32
95 86 88 87 89 88 87 88 89 89 88 88 90 92 93 92 72 72 72 73 75 90 81 88 88 79 66 43 48 44 43 46 55 74 59 59 49 53 45 50 36 39 47 35 32 32 36
92 90 88 89 87 87 87 89 90 89 89 90 90 67 92 93 66 35 51 60 86 87 93 94 86 72 53 48 46 28 36 42 55 74 73 65 64 59 56 40 45 46 40 44 25 28 29
88 90 90 89 87 87 88 89 90 91 90 90 90 50 62 87 38 26 26 64 81 89 84 80 74 65 43 36 38 34 29 38 47 48 81 64 69 75 65 76 69 50 56 38 35 30 33
90 90 90 89 88 88 89 90 92 93 92 86 51 32 29 35 31 23 18 48 52 38 64 70 45 51 29 39 46 30 20 43 49 69 73 77 83 80 76 79 83 54 48 47 47 31 34
92 90 89 89 89 90 90 92 94 94 88 56 27 24 21 18 35 22 20 44 36 31 51 67 60 43 26 40 40 20 23 33 42 54 62 63 82 83 59 65 66 68 68 63 46 37 41
91 90 89 90 91 91 93 94 94 91 70 26 26 19 16 15 34 22 42 58 71 83 70 53 56 45 27 39 50 24 22 19 26 35 34 53 66 50 52 60 93 99 100 92 62 46 50
91 90 90 92 92 93 95 95 93 88 49 27 15 17 17 12 30 38 68 68 81 91 65 51 49 26 30 32 34 30 26 24 25 30 41 52 39 54 63 83 90 87 98 90 96 65 58
92 93 92 94 94 95 96 90 77 65 32 13 12 14 20 12 30 50 61 67 83 93 33 52 44 31 32 31 25 28 27 30 26 35 34 30 46 40 46 55 75 72 56 74 88 92 83
94 93 94 95 95 95 88 77 40 27 19 14 12 16 20 17 34 36 53 67 88 81 29 46 39 26 34 26 28 21 29 30 41 45 51 36 31 40 45 41 31 46 50 56 56 69 67
95 96 93 96 96 93 85 43 17 14 15 15 13 22 20 27 35 40 44 88 92 46 51 44 34 34 38 30 28 32 26 30 41 47 32 34 32 41 36 39 26 43 46 31 28 42 86
98 97 96 96 96 89 74 40 18 14 11 10 14 24 23 32 42 30 49 76 28 39 29 45 40 38 42 38 31 36 30 44 60 58 43 39 30 27 42 37 30 33 48 42 29 66 50
97 96 97 97 93 90 89 48 17 12 8 7 13 25 26 32 28 23 50 20 31 48 52 38 37 37 37 41 39 42 32 40 53 56 49 52 45 31 27 41 53 43 50 60 79 50 66
93 97 97 97 97 91 77 62 16 12 9 8 16 29 33 22 17 19 17 25 58 60 51 49 37 40 34 36 51 47 39 46 56 80 88 70 44 29 29 38 34 47 40 49 75 46 53
97 97 96 97 96 90 87 58 16 12 11 13 30 38 31 23 17 24 25 48 54 54 52 47 52 47 49 46 52 46 44 37 56 56 55 54 80 33 32 31 40 45 49 65 59 82 79
97 93 96 94 97 92 82 72 19 14 13 20 41 28 34 23 25 34 49 56 56 51 52 54 54 56 49 61 53 52 51 42 60 60 58 51 76 41 34 37 54 51 67 67 61 63 84
97 96 94 95 94 93 89 84 59 22 13 28 59 36 46 20 34 62 61 67 62 51 50 54 58 58 56 59 62 58 50 48 58 65 65 54 82 70 48 53 46 52 76 81 74 56 62
95 92 94 92 92 93 92 87 78 70 40 57 64 58 42 40 47 53 58 56 61 56 53 57 58 52 52 73 90 60 53 44 56 50 65 65 80 77 53 74 53 67 59 64 77 85 86
92 95 90 90 92 91 89 83 80 70 44 44 59 41 46 54 60 64 68 67 63 48 58 57 61 61 63 72 86 79 62 59 48 48 65 78 86 90 84 85 83 84 63 56 77 85 82
94 90 90 92 92 91 80 79 82 62 43 45 77 86 73 66 62 65 65 73 63 62 50 59 61 60 58 87 68 65 54 59 46 55 76 87 89 80 83 88 78 76 74 68 82 78 86
92 90 91 94 91 84 86 80 76 61 51 72 79 79 77 76 72 59 70 70 68 57 65 64 84 57 45 89 80 89 81 70 83 61 51 69 89 83 85 83 63 83 68 67 73 76 79
93 90 93 96 88 88 86 84 80 64 43 74 82 88 65 76 65 70 78 66 65 56 52 72 76 46 64 64 73 78 85 69 60 62 73 75 79 89 87 77 84 78 93 73 75 78 82
95 96 95 96 94 91 86 81 82 66 46 61 80 87 77 80 66 70 72 53 53 55 69 65 62 58 46 54 74 78 84 87 68 72 61 78 88 85 87 88 90 88 72 72 81 82 81
97 97 97 94 92 89 84 79 87 64 54 62 84 83 80 90 70 62 67 59 56 62 64 67 47 48 58 72 88 89 84 82 67 58 71 71 83 87 85 85 85 79 77 86 90 83 80
96 96 95 91 89 86 82 79 85 66 57 62 95 73 75 84 82 77 79 71 83 73 53 55 47 60 59 70 72 84 84 81 73 58 28 57 70 76 76 84 89 83 70 73 82 85 73
96 96 92 90 88 84 86 85 81 70 57 60 65 45 62 84 70 78 70 74 75 78 82 62 68 76 63 73 79 85 79 84 81 64 71 62 73 75 83 88 84 71 72 80 96 92 75
90 94 91 90 86 86 82 80 95 69 59 52 71 56 51 81 68 62 61 60 60 73 76 72 71 71 74 78 75 80 78 84 69 86 85 79 74 69 66 73 73 61 72 82 81 78 79
91 90 91 90 87 88 75 86 53 58 60 51 62 35 31 71 73 63 56 58 66 72 77 83 89 91 90 84 81 76 64 60 72 36 69 51 72 64 68 50 79 80 73 75 86 77 70
Wind_Speed
12 13 14 15 16 17 18 19 19 20 21 22 23 25 25 26 26 26 26 27 26 22 20 16 11 6 3 3 4 10 20 16 1 16 22 18 19 20 17 13 22 27 24 21 18 18 23
12 13 14 15 16 16 17 18 19 20 21 23 24 24 25 27 27 27 28 32 26 18 12 8 6 9 5 1 5 16 19 12 5 14 17 18 9 15 9 20 17 7 16 23 25 24 16
12 13 13 15 16 17 17 18 19 21 22 24 24 25 26 27 26 31 30 28 12 12 10 3 10 12 3 4 12 16 15 12 7 15 12 21 20 11 2 12 14 17 21 21 24 18 11
12 12 14 14 16 17 17 18 20 21 23 24 25 27 27 28 26 34 36 14 10 10 12 13 13 5 2 5 11 21 18 9 2 8 17 9 17 15 11 10 10 8 13 13 2 18 23
11 12 13 15 15 16 17 18 20 21 23 25 25 27 29 29 24 34 37 7 8 8 8 5 2 2 4 6 19 22 17 9 10 5 6 5 5 9 4 14 15 16 21 21 15 9 7
10 12 13 14 15 16 17 18 20 22 23 25 27 28 30 30 22 33 33 4 5 8 2 1 4 2 7 11 12 20 25 9 3 3 4 8 5 6 7 10 18 14 22 17 17 5 17
10 11 12 13 14 15 17 18 20 21 23 26 29 27 28 29 17 31 36 3 4 1 13 5 4 4 10 18 6 23 32 15 6 4 8 7 10 14 20 17 20 18 24 28 21 8 11
9 10 12 13 13 15 16 18 20 21 24 27 29 26 27 27 12 26 22 6 3 3 3 3 3 4 11 14 4 20 27 11 9 10 10 9 16 16 14 14 11 10 15 22 25 24 20
8 10 11 12 13 15 17 18 20 22 25 28 29 26 23 25 9 17 13 10 6 8 2 3 3 7 11 11 6 14 18 12 9 10 10 11 13 14 11 10 12 10 10 13 14 13 15
7 9 10 11 13 15 16 19 21 23 26 28 29 25 20 21 4 11 3 17 2 7 1 8 6 8 11 7 4 7 19 8 5 9 10 9 10 12 12 9 8 12 11 13 13 11 7
7 8 10 11 13 15 17 19 21 23 26 27 28 20 19 20 8 4 13 10 9 4 3 8 5 6 12 11 10 15 19 7 8 11 4 11 14 14 10 3 12 8 10 13 16 15 13
6 8 8 10 12 15 17 20 22 24 25 27 27 14 15 16 9 11 17 5 4 3 3 5 5 15 10 14 9 14 15 6 3 7 6 13 7 4 9 11 14 11 12 21 19 15 12
6 6 8 10 12 14 17 20 22 23 25 26 25 10 20 14 11 24 8 3 3 4 5 8 9 12 7 16 12 15 18 12 10 9 13 9 9 7 5 21 11 9 12 6 6 11 14
4 6 8 10 12 15 17 20 21 23 24 25 23 8 18 18 24 20 1 2 7 4 6 8 13 11 9 15 11 15 17 10 9 11 12 9 11 10 15 11 8 19 6 5 7 8 9
5 7 8 10 13 15 17 19 21 22 24 25 17 6 16 31 23 14 2 7 4 5 5 9 11 6 9 12 9 9 14 8 8 8 7 8 11 20 13 8 11 5 9 12 8 15 10
6 6 8 10 13 15 17 20 21 21 23 24 6 3 21 24 20 10 5 6 3 4 6 6 6 4 11 13 10 14 8 5 12 11 12 8 13 7 13 12 5 5 7 3 2 6 5
6 7 8 9 11 14 17 19 21 21 23 19 4 3 23 13 13 7 5 5 3 3 5 4 4 6 8 8 13 9 5 12 10 13 10 15 5 10 9 8 13 5 3 5 4 4 4
6 8 7 9 11 14 16 20 22 22 22 12 4 4 25 12 6 3 6 3 5 6 5 3 4 6 8 10 9 6 8 7 10 13 17 11 5 7 12 12 20 17 6 4 4 6 4
8 8 7 8 10 12 15 18 21 22 18 4 3 2 22 13 5 6 2 5 2 7 9 4 5 5 12 8 5 6 6 8 13 19 7 5 4 6 3 5 5 8 11 7 7 3 2
8 6 6 7 8 11 14 17 21 20 14 4 2 2 4 6 5 5 3 7 8 8 6 7 9 9 13 10 3 8 12 7 20 16 17 13 2 5 5 4 4 5 16 16 4 3 3
6 6 5 4 7 10 12 15 18 19 12 5 4 3 2 4 6 8 4 6 9 9 6 8 3 12 9 5 9 4 11 19 13 15 11 6 1 6 10 12 16 13 14 16 19 9 4
7 6 5 3 6 7 10 13 16 18 6 8 3 3 3 3 2 6 10 7 9 8 3 6 4 13 9 3 7 14 15 6 8 11 10 10 1 5 3 9 15 19 16 10 11 10 11
7 7 5 3 4 6 8 10 13 15 8 5 3 4 4 6 4 3 3 5 5 9 3 6 6 8 4 11 14 13 3 10 6 7 8 6 3 4 5 12 9 2 12 9 7 10 3
9 7 4 2 3 5 6 8 10 12 15 11 5 5 4 3 5 4 5 7 9 6 6 8 7 5 3 14 7 10 8 7 7 9 11 6 3 3 3 6 3 4 4 5 7 5 6
8 6 4 3 5 5 7 9 9 10 12 17 7 4 3 5 2 2 8 8 6 6 4 4 7 6 15 5 4 3 3 2 3 9 12 9 3 3 1 3 3 3 4 4 4 1 5
8 7 5 6 6 7 8 8 9 8 8 13 13 9 6 7 4 4 2 6 4 6 5 4 7 13 10 1 3 5 5 5 6 15 12 11 8 3 3 1 2 3 5 0 1 3 2
9 8 7 7 8 9 10 9 9 6 7 8 10 10 9 5 2 1 3 1 2 2 3 4 9 9 10 4 4 4 3 2 4 8 8 8 6 8 6 3 1 0 4 3 3 3 3
9 9 9 9 10 10 8 8 10 10 13 9 10 4 8 4 3 3 2 2 1 1 3 4 3 2 5 4 2 2 3 3 0 1 5 4 5 4 2 2 2 2 2 3 2 1 3
11 10 11 12 12 10 10 11 12 11 13 16 10 19 19 11 5 4 8 7 0 3 1 2 2 1 2 2 2 2 2 1 1 3 2 1 1 3 3 2 1 2 4 3 4 4 4
Wind_Direction
18 17 14 13 10 8 8 4 2 360 358 357 353 350 348 346 342 337 334 331 322 311 301 290 276 258 194 230 273 348 346 346 192 167 187 196 202 210 227 238 239 239 254 257 251 256 251
18 13 12 12 8 7 8 5 3 2 359 356 354 352 350 348 346 341 337 334 327 324 327 304 227 172 164 205 353 344 346 355 195 192 207 204 213 218 261 247 234 250 259 260 258 253 250
17 14 12 9 8 8 8 6 4 1 358 356 355 353 351 350 350 348 344 343 13 14 16 69 137 151 152 43 358 355 348 317 260 216 217 218 228 218 272 254 258 266 273 268 253 246 251
16 14 12 12 10 9 8 7 3 0 357 357 356 358 352 350 351 358 352 355 28 49 63 93 130 143 84 354 2 6 351 347 323 237 235 247 226 240 244 276 261 260 261 258 231 232 233
10 10 11 14 12 10 7 5 2 0 358 357 358 0 357 353 2 2 357 59 62 83 83 81 96 307 67 6 357 353 351 316 308 265 241 210 185 227 239 246 266 242 259 255 266 226 211
17 13 13 12 11 9 7 5 2 359 358 359 0 2 3 357 4 4 4 78 70 47 352 87 55 184 43 345 333 350 359 334 309 299 211 213 221 223 222 218 235 246 246 255 255 233 232
19 16 13 12 10 10 7 3 2 360 1 1 2 1 3 358 357 6 16 21 359 117 35 37 359 52 341 345 42 14 354 330 335 267 267 224 245 234 249 235 249 268 278 274 256 252 282
21 18 14 12 11 8 6 4 4 359 1 5 1 359 2 357 353 6 30 52 32 285 328 3 306 347 343 343 335 12 3 10 326 308 298 259 257 273 284 283 293 283 263 263 270 267 261
27 20 16 15 11 8 6 4 3 359 2 2 2 359 359 357 356 11 64 42 309 170 297 352 3 15 358 343 30 9 6 333 317 312 314 288 299 349 335 333 328 292 270 291 297 296 271
30 24 21 17 13 9 7 5 5 1 1 2 0 358 358 1 22 356 52 343 137 175 242 15 18 24 349 358 39 350 0 341 324 314 326 282 334 321 314 319 358 310 333 327 324 326 256
35 30 27 18 15 10 8 6 5 2 2 360 360 4 3 11 341 21 323 336 152 205 270 359 22 10 352 40 314 356 342 345 343 326 295 334 314 326 319 31 341 285 313 306 297 284 286
42 39 31 23 17 12 7 6 6 3 1 358 1 13 13 2 0 336 334 146 184 240 42 13 24 350 0 16 5 336 356 11 283 322 314 335 304 304 336 331 323 313 297 294 260 246 249
51 44 33 26 18 13 9 5 3 2 360 356 0 15 18 12 328 335 351 188 279 33 349 3 338 342 2 354 359 356 350 25 24 341 344 329 340 323 11 338 326 332 323 292 257 214 244
61 52 39 25 20 17 8 2 4 3 357 353 359 51 13 2 347 343 302 267 53 34 10 350 335 331 7 5 350 342 350 358 33 13 319 339 329 345 336 322 301 305 309 305 303 300 310
77 60 42 28 22 13 9 5 7 2 355 348 1 76 6 2 359 348 319 52 34 19 341 329 323 336 352 349 340 335 344 332 13 32 357 322 303 315 315 313 308 342 300 319 263 266 269
96 71 45 33 18 19 13 9 6 359 354 344 13 82 11 359 19 32 59 90 74 25 335 331 343 343 336 342 339 345 326 10 351 357 350 323 296 315 322 305 160 338 346 307 350 310 339
112 79 54 31 27 21 15 9 4 356 352 349 61 85 347 6 48 49 62 62 8 2 344 315 312 300 312 323 327 327 314 324 10 347 336 316 262 290 305 347 314 317 31 347 291 283 322
121 90 62 42 35 28 16 11 4 355 356 5 52 61 344 38 53 45 59 9 335 339 331 293 274 281 290 314 309 310 306 312 1 334 323 300 291 290 318 79 78 65 23 349 305 305 340
119 100 67 47 39 29 19 12 7 3 3 23 69 87 24 27 64 63 52 47 340 343 342 334 302 310 311 296 289 272 319 324 1 341 315 315 245 286 184 199 99 47 14 334 273 268 34
123 107 84 52 41 32 19 12 11 9 9 69 102 102 56 50 53 60 47 38 3 336 324 328 304 347 342 323 265 285 312 332 338 318 332 337 327 21 335 350 319 28 19 9 330 307 82
133 116 98 71 40 31 15 13 14 12 17 85 30 73 17 37 46 60 53 13 0 0 339 18 328 10 341 295 331 357 323 329 330 357 343 352 345 83 76 77 79 66 47 37 50 15 357
141 124 117 108 45 20 13 14 12 14 38 72 107 136 73 73 25 55 20 15 2 348 308 346 5 336 345 38 345 308 313 341 25 317 349 347 46 123 84 125 99 68 42 48 43 38 83
134 128 133 110 44 20 19 15 20 26 43 88 77 79 106 17 46 74 34 332 349 353 280 42 9 349 360 358 327 293 103 88 80 17 338 347 299 222 168 190 299 46 16 41 70 35 6
144 139 126 95 45 40 35 37 43 39 42 112 103 109 94 82 78 50 351 341 336 329 282 311 351 357 326 338 121 85 100 117 80 52 35 339 321 357 90 187 247 89 42 60 87 49 27
149 146 135 98 80 75 74 72 73 68 63 102 98 95 111 107 55 59 349 351 338 341 338 285 347 332 312 289 203 206 201 240 70 38 27 30 304 69 190 57 106 168 14 336 348 157 14
153 139 128 106 101 96 91 86 96 86 77 109 83 100 99 126 40 302 325 12 343 343 335 297 335 329 351 328 41 26 26 327 335 340 10 14 20 47 36 63 51 2 357 292 306 242 14
148 141 128 121 113 105 102 107 106 116 120 124 95 106 93 99 26 301 59 18 323 307 271 310 339 344 2 29 56 34 43 304 360 350 335 344 2 34 30 70 157 295 335 121 272 59 323
149 141 133 129 119 118 112 113 125 112 128 116 82 110 113 96 68 53 66 50 11 58 343 351 276 35 6 58 46 48 40 50 355 319 336 335 343 8 303 4 353 129 194 233 55 239 275
146 142 139 130 128 124 114 115 118 113 131 135 93 97 106 84 117 132 93 73 146 241 246 340 57 35 37 100 74 118 89 100 337 20 165 12 322 305 262 329 60 224 257 210 196 251 274